Theta_e
320 321 321 320 322 321 323 322 320 324 326 324 326 325 326 327 328 328 329 328 329 329 329 329 329 329 329 327 327 326 325 323 324 321 321 323 320 316 308 317 316 314 313
318 320 321 320 321 321 323 322 322 325 327 327 325 326 327 328 327 328 329 329 329 329 329 328 328 328 327 327 326 324 324 323 323 319 319 319 319 319 318 322 320 320 319
317 318 320 320 321 319 318 320 321 317 324 327 326 327 327 324 327 329 328 329 329 329 329 328 328 329 329 329 328 325 323 320 320 318 318 319 320 319 318 316 316 317 317
317 317 318 321 320 319 322 323 322 320 317 323 325 326 329 325 323 329 330 330 330 329 330 329 330 329 329 327 327 323 317 317 318 319 319 319 318 316 319 319 317 317 318
317 317 317 319 319 319 320 322 322 322 320 318 317 320 319 323 321 318 318 318 319 323 324 325 326 326 322 320 317 316 311 319 320 319 319 319 319 317 316 320 319 319 317
319 319 317 316 319 319 319 321 318 321 320 321 321 320 318 318 318 318 318 317 316 317 316 317 318 318 318 318 318 318 317 320 321 320 320 320 321 319 319 320 320 319 318
319 320 317 315 317 319 319 320 322 320 321 321 320 319 313 316 319 319 319 320 319 318 318 319 319 318 318 317 316 316 317 317 318 318 321 322 322 322 320 319 319 319 319
320 320 318 315 315 318 319 321 319 318 319 320 321 321 318 313 314 315 316 317 317 317 316 315 314 313 312 310 309 309 310 310 311 310 311 312 311 314 311 314 316 319 318
319 319 319 316 315 317 318 320 317 317 318 319 322 317 316 310 310 310 311 311 311 310 308 307 307 307 309 309 309 310 310 311 311 312 313 313 313 312 311 309 315 316 316
319 319 319 317 316 317 318 317 312 313 315 318 319 315 312 308 305 305 305 311 305 305 305 306 308 310 312 313 313 314 314 314 314 314 314 314 313 313 311 310 308 312 313
319 318 319 318 316 317 319 312 309 310 317 316 314 309 306 305 305 305 305 310 309 309 311 313 314 315 315 315 315 314 314 313 313 312 312 311 311 311 310 310 308 304 308
320 318 319 319 315 316 311 309 309 311 312 308 308 308 308 309 311 312 312 313 314 314 314 315 315 314 313 312 312 311 311 311 311 311 311 311 311 310 309 308 308 309 308
321 319 320 319 316 316 310 309 311 307 315 313 313 315 315 313 314 314 314 314 314 314 316 314 312 312 312 311 311 312 313 316 318 319 315 315 314 312 311 314 317 316 315
322 321 321 320 318 315 317 315 317 315 316 316 316 316 316 315 314 314 314 313 313 312 312 312 312 313 313 314 314 319 321 322 320 318 317 315 313 314 314 313 312 310 309
322 323 322 321 315 314 314 317 316 315 317 317 317 317 317 317 316 314 313 313 313 314 316 317 317 318 318 318 320 319 318 318 317 317 316 316 317 314 313 311 309 307 308
321 322 322 320 320 318 316 316 314 316 312 314 317 318 317 317 317 315 314 316 317 318 318 318 320 320 319 320 322 323 321 319 317 315 313 311 309 309 307 306 306 306 306
318 320 321 321 321 318 318 316 316 311 311 311 312 313 317 318 316 316 317 317 317 318 320 321 320 319 320 320 321 320 317 313 311 307 306 306 306 305 305 305 305 304 305
322 319 319 320 321 321 319 318 317 316 313 312 313 314 314 315 315 315 316 319 320 321 320 320 321 321 321 320 315 310 308 306 308 308 307 305 304 304 304 304 304 304 303
325 323 320 321 320 321 320 320 319 318 318 316 316 313 314 316 319 321 322 321 323 322 320 320 319 319 319 314 313 309 308 308 308 306 304 299 298 301 302 302 302 302 302
325 324 323 321 322 321 322 321 321 320 320 321 324 324 323 323 322 321 321 323 323 322 322 320 320 316 311 310 312 313 314 310 301 297 297 296 296 298 299 298 301 302 301
325 325 323 322 322 322 322 322 322 322 322 322 322 325 324 324 323 321 321 322 320 320 310 312 310 313 312 309 302 297 297 297 296 294 295 295 295 295 296 297 300 300 299
325 325 324 323 322 323 323 323 323 323 323 324 326 325 324 322 320 319 314 314 314 312 313 313 310 304 299 297 296 296 294 294 294 294 294 294 295 295 299 299 299 298 297
324 325 325 324 322 323 323 323 323 324 326 324 323 323 318 315 314 315 315 314 314 313 308 304 300 297 295 294 295 295 294 293 293 293 293 294 298 297 298 298 297 297 296
324 325 325 324 323 323 324 323 324 325 323 319 317 317 315 313 313 316 315 313 306 302 300 299 297 295 295 294 294 293 293 293 293 292 294 297 297 297 297 297 296 296 295
323 323 324 323 323 324 324 324 324 321 318 317 316 314 313 315 314 309 308 307 307 309 298 295 294 293 293 293 293 293 292 292 292 292 295 296 296 297 296 296 295 295 295
323 323 324 324 323 323 322 320 318 317 316 314 312 313 316 311 308 307 305 302 297 295 294 293 293 293 293 293 292 292 292 292 291 291 292 296 296 295 295 294 294 294 294
Wind_Speed
7 6 7 7 8 9 10 12 14 15 18 15 15 12 13 16 22 18 17 17 14 17 16 14 17 28 32 33 23 18 9 11 13 14 12 18 17 14 16 12 12 11 11
8 7 7 8 8 9 10 12 12 16 18 18 17 19 19 15 15 16 18 20 17 17 14 12 22 19 24 16 16 11 9 9 11 16 16 17 15 13 14 13 12 9 10
10 8 8 8 9 9 13 15 13 15 15 14 17 16 18 19 18 17 20 20 19 17 16 16 20 16 17 14 13 12 9 8 11 16 17 15 13 14 15 14 13 13 10
11 10 10 10 11 10 12 12 13 15 17 18 17 18 18 19 18 18 19 18 17 16 15 15 14 14 16 16 13 13 13 12 14 12 14 13 12 15 12 11 16 17 15
13 11 11 12 12 11 11 11 13 13 15 16 18 18 18 18 19 24 25 24 23 22 20 17 16 15 16 15 11 12 14 13 12 11 10 10 9 10 15 13 14 13 18
14 12 12 13 13 12 12 13 13 14 14 14 14 15 17 20 20 20 19 19 19 19 19 18 17 16 15 13 11 11 13 14 13 11 8 7 9 11 13 15 14 16 18
15 14 13 14 15 14 13 13 13 14 14 15 15 14 17 18 19 18 18 17 18 17 16 15 13 13 12 12 11 11 11 10 11 10 9 11 11 15 15 18 20 19 21
17 15 14 14 16 16 15 14 15 15 14 14 12 11 12 14 15 16 16 15 15 14 13 13 12 12 12 11 10 9 9 10 9 10 12 12 12 15 16 18 19 21 23
19 18 16 15 17 18 17 16 17 17 16 13 10 10 10 12 14 14 14 14 13 13 13 13 13 13 12 11 10 9 8 7 7 8 8 10 13 15 18 19 18 18 22
22 20 18 17 18 19 19 19 19 17 15 12 11 11 12 13 15 15 16 11 16 15 15 14 13 13 12 10 9 7 5 4 7 10 13 16 18 20 21 23 22 21 23
23 21 20 18 18 19 19 20 21 20 14 15 13 14 14 15 17 18 18 14 14 15 14 13 11 9 7 5 4 5 7 10 14 17 20 21 22 23 24 24 24 25 22
25 24 22 21 19 19 21 21 21 20 18 19 17 16 17 19 20 19 19 17 16 13 10 9 8 6 7 9 8 10 12 15 18 19 17 16 15 15 15 17 22 25 28
27 26 25 23 21 21 23 23 22 23 18 19 18 16 17 20 20 19 17 15 14 13 10 11 7 9 12 14 14 15 17 19 20 18 16 15 14 15 20 25 27 29 31
30 28 26 26 25 23 22 23 21 22 20 20 19 18 17 17 19 18 17 16 14 13 8 7 11 14 17 18 16 14 17 19 16 15 15 15 17 19 17 16 16 18 26
33 31 29 27 29 27 26 25 24 24 23 22 21 20 19 18 18 19 18 15 11 8 8 9 12 14 13 11 10 10 10 11 11 11 12 12 13 14 14 15 20 18 17
40 35 33 30 30 27 27 25 29 25 27 26 24 20 17 18 19 18 13 11 11 12 14 11 9 8 7 6 6 7 5 7 8 9 8 9 12 17 20 18 15 16 17
44 39 35 34 31 31 29 29 26 31 28 28 27 26 24 19 21 18 17 17 18 18 15 12 10 11 7 6 2 2 1 4 7 6 9 12 14 12 14 19 18 17 20
45 41 40 38 34 32 31 30 27 27 32 34 32 31 30 27 24 22 21 21 19 17 10 7 6 5 4 4 3 3 5 6 9 12 13 15 18 12 13 14 16 17 18
40 40 43 36 38 34 32 30 29 27 26 25 29 32 30 28 26 23 18 12 9 7 6 7 7 7 5 8 5 6 8 11 14 16 17 13 11 11 9 12 14 16 18
37 40 38 37 31 33 31 30 30 28 26 26 24 21 30 26 22 18 12 10 11 11 10 8 8 8 10 9 4 7 13 12 6 6 7 9 10 11 14 16 14 15 16
30 33 43 40 35 33 31 30 27 27 27 25 24 25 25 16 14 13 11 10 10 12 14 15 14 6 3 5 9 8 8 8 7 8 8 11 13 14 16 16 14 15 16
25 27 28 36 36 33 31 29 28 26 25 24 28 32 25 15 15 14 17 16 21 20 14 10 11 13 10 9 10 8 6 5 7 8 10 12 12 13 12 13 14 16 18
23 25 27 28 37 35 33 31 30 28 25 25 28 26 21 21 21 22 25 24 20 16 14 15 13 12 12 11 10 7 6 6 9 9 7 7 8 12 10 13 14 16 17
22 23 23 21 27 31 30 33 28 29 25 22 24 25 25 26 28 30 26 24 25 22 16 11 13 11 11 11 10 9 8 7 5 6 9 8 8 10 11 13 15 19 21
22 22 23 22 26 27 27 29 27 27 26 27 26 26 28 32 32 31 28 23 19 16 19 18 16 15 13 11 10 7 5 4 7 9 8 8 9 11 13 15 17 19 19
22 22 21 24 26 31 34 34 30 31 31 30 29 34 36 34 30 27 25 25 24 26 24 22 19 15 12 9 7 5 5 7 10 12 11 7 10 13 14 17 19 20 21
Wind_Direction
129 112 99 99 85 82 77 76 72 91 103 79 101 103 98 130 126 123 135 143 149 162 161 166 172 172 163 159 169 168 163 158 147 157 159 173 169 160 179 181 199 200 218
142 136 116 107 106 97 88 93 87 93 103 95 88 91 95 123 153 142 132 131 141 135 134 148 145 143 157 168 170 172 186 175 167 157 163 170 170 174 184 194 202 209 221
149 148 137 121 125 111 110 105 92 98 102 106 101 99 98 94 100 126 133 133 133 133 136 141 147 155 153 163 172 186 180 162 163 169 172 174 176 184 200 209 220 223 235
153 152 152 140 140 127 119 111 107 98 105 108 109 108 106 97 102 113 129 131 131 133 140 140 151 159 166 172 167 171 171 158 164 169 177 180 185 202 210 224 243 249 249
159 155 158 156 145 142 133 128 121 118 114 111 111 109 110 110 115 116 118 118 122 126 128 134 142 152 158 161 160 158 167 157 159 166 179 189 193 226 237 241 241 248 251
167 162 161 164 158 156 151 143 136 128 125 125 121 117 121 120 121 129 128 127 128 130 131 136 136 137 142 147 159 175 171 178 175 181 188 209 223 244 241 234 241 241 250
174 171 168 169 168 164 161 157 149 145 136 131 127 127 138 138 136 137 136 133 136 140 144 145 140 151 157 168 175 180 189 196 212 219 217 235 239 239 236 250 246 247 252
181 179 175 172 175 173 170 169 168 161 156 152 143 140 145 155 157 159 158 157 156 157 157 160 163 163 167 164 163 174 191 205 214 224 234 239 246 248 258 262 262 263 262
186 185 181 177 177 180 180 181 180 178 176 176 173 175 172 174 174 173 167 168 170 168 165 160 154 146 140 142 148 160 177 195 211 230 249 260 263 266 269 266 260 259 263
187 186 184 181 180 182 185 189 193 191 187 184 189 189 185 177 170 168 164 162 164 164 159 155 152 150 148 150 160 175 196 241 261 267 269 271 273 274 274 273 269 260 266
186 184 184 184 181 181 183 189 192 190 192 187 191 189 180 171 167 164 164 159 165 158 159 156 157 161 166 184 216 245 262 273 275 274 276 277 278 278 278 275 271 266 266
188 185 185 185 179 181 182 184 187 188 189 187 183 178 175 167 160 158 159 161 162 162 167 182 191 203 227 243 254 265 276 283 287 285 281 278 279 280 281 281 284 290 283
190 188 186 187 183 185 182 182 181 183 183 181 181 180 180 175 169 168 171 175 179 183 192 208 226 253 269 280 289 292 292 292 289 283 278 280 279 272 277 300 302 297 293
192 192 189 187 188 188 187 189 185 188 185 185 185 185 188 190 186 187 190 198 204 213 233 262 270 275 281 287 290 290 290 287 284 279 279 277 284 300 297 295 294 292 281
192 193 193 192 193 194 192 193 193 198 193 190 191 190 191 195 200 200 209 217 234 255 271 271 283 290 295 289 279 275 272 281 294 298 298 304 305 306 307 301 297 308 306
194 195 197 195 197 197 197 199 201 199 204 197 197 194 201 205 209 218 220 237 257 272 280 274 255 253 248 253 261 268 272 308 309 314 324 325 322 322 325 326 325 321 316
203 199 200 198 202 199 201 201 204 206 209 209 212 211 204 211 219 232 243 254 267 279 282 252 248 239 256 270 292 263 253 301 346 0 356 355 356 347 338 324 327 327 322
208 207 202 204 204 205 206 206 205 206 211 213 215 218 223 229 238 248 256 267 278 275 252 240 222 217 194 224 104 85 50 52 21 15 9 8 350 340 331 323 325 323 322
208 207 208 207 206 209 207 208 208 208 209 211 219 223 228 236 244 251 257 254 224 224 189 203 200 199 196 160 152 94 63 27 8 345 328 337 326 326 321 323 330 328 322
210 209 212 209 211 210 210 211 210 210 209 209 209 218 226 232 236 241 231 195 186 200 205 186 168 151 134 124 82 326 305 301 338 12 337 339 354 346 336 340 337 330 327
210 212 210 210 211 211 210 214 213 212 210 210 213 213 228 200 201 208 224 172 173 154 142 136 129 115 95 77 63 60 53 64 43 27 4 1 0 354 342 341 340 329 326
206 207 213 212 212 211 211 212 213 210 210 206 202 212 218 180 169 175 150 162 152 142 135 134 131 127 118 107 105 109 78 44 35 34 19 7 353 347 349 345 339 338 334
204 202 204 205 208 208 206 206 213 213 203 195 201 200 167 161 159 157 151 147 146 143 137 130 123 125 126 114 109 99 87 61 43 31 14 356 3 346 345 333 334 330 329
205 201 203 199 199 205 201 197 203 196 186 179 169 164 159 156 154 154 154 149 141 135 131 136 143 148 134 121 111 97 76 65 50 28 22 8 355 340 340 333 335 329 331
196 198 197 194 190 187 187 179 181 178 171 169 163 156 153 154 153 150 147 149 155 156 155 154 151 137 125 114 105 105 107 80 39 18 16 1 344 341 331 327 331 332 330
183 181 186 180 180 178 178 176 167 166 165 165 158 158 153 151 151 153 150 146 152 150 148 148 139 132 130 127 130 120 73 36 19 13 13 353 339 339 330 336 333 330 328